SL-8 DEB, 1590

Orbit data source: Space-Track

SL-8 DEB, 1590 is space debris in LEO originally from a launch on Sat, 18 Sep 1965 UTC launched from the Tyuratam Missile And Space Complex (TTMTR). Debris objects in space refer to the collection of defunct objects orbiting the Earth. Examples of debris include non-operational satellites, rocket bodies, and fragments generated from explosions, collisions, or faulty payload assembly.

Loading next visibility...
Identifier
1590, 1965-073G
Orbit
LEO
Country
Flag of CISCIS
Related business
Manufacturer
Unknown
Mission
Spacecraft
Bus & Motor
Unknown
Mass
Unknown
Launch date (UTC)
1965-09-18 (61 years ago)
Launch vehicle
Unknown
Launch site
Tyuratam Missile And Space Complex (TTMTR)
Object type
Payload
Rocket body
Debris
Shape & HBR
Unknown shape, 0.1 m
Radar Cross Section
Small (<0.1 m²)

Expand to show TLE details & history
Last TLE update: 8 hours ago

TLE from 8 hours ago
0 SL-8 DEB
1  1590U 65073G   26119.69288205  .00000292  00000-0  24167-2 0  9990
2  1590  56.0887 226.3192 0171880 332.0283 172.2602 12.49817664752273
Epoch: 2026-04-29T16:37Z
TLE epoch observation values (Epoch: 2026-04-29T16:37:45.009Z)
Latitude
28.84448°
Longitude
-82.39001°
Altitude
1,600.651 km
Speed
7.012 km/s
True Right ascension
01h 38m 47s
True Declination
28° 42' 53"
Sunlit
Object was in daylight at epoch
Visualization orbit readout
Latitude
Unknown
Longitude
Unknown
Altitude
Unknown
Speed
Unknown
Apparent Right ascension
Unknown
Apparent Declination
Unknown
Sunlit
N/A
Visualization observer readout
Local Sidereal Time
08:37:14
Azimuth
Unknown
Elevation
Unknown
Doppler factor
Unknown
Orbital elements
Apogee altitude
1,599.886 km
Perigee altitude
1,330.267 km
Semi-major axis
7,843.214 km
Eccentricity
0.01719
Inclination
56.0887°
RAAN
226.3192°
Arg. of periapsis
332.0283°
True anomaly
172.51992°
Mean anomaly
172.2602°
Eccentric anomaly
172.39061°
Mean motion
3.12466 °/min
Orbital period
115.21 mins
BSTAR
0.0024167
Loading maneuver chart data...
Computing Atmospheric mass density...
Loading historical data...
Loading historical data...
Loading historical data...
Loading historical data...
Loading historical data...
Loading historical data...
Loading historical data...

Documentation

Showing up to 5 results
|